User: anonymous   Login
Location: Unspecified
(0.0000°N, 0.0000°E)
Time: 06:50:04
(UTC+00:00)
Language:

SWISSCUBE - Orbit

View from above orbital plane
View from above orbital plane
View from above satellite
View from above satellite

Ground track
Ground track

The orbit data is extracted from the following two-line orbital elements,

1 35932U 09051B   15244.89219223 +.00000381 +00000-0 +98303-4 0  9998
2 35932 098.4167 004.1616 0009000 102.7460 257.4743 14.55504228315081
Epoch (UTC): 01 September 2015 21:24:45
Eccentricity: 0.0009000
inclination: 98.4167°
perigee height: 701 km
apogee height: 714 km
right ascension of ascending node: 4.1616°
argument of perigee: 102.7460°
revolutions per day: 14.55504228
mean anomaly at epoch: 257.4743°
orbit number at epoch: 31508

The dashed part of the orbit path shows where the satellite is in the earth's shadow,  

DLR